Weather History for Amritsar, India

Change the Weather History Date:

Saturday, March 2, 2013

  Actual Average Record
Temperature  
Mean Temperature 60 °F -  
Max Temperature 76 °F 72 °F 80 °F (2006)
Min Temperature 44 °F 50 °F 40 °F (2014)
Degree Days  
Heating Degree Days 5    
Growing Degree Days 10 (Base 50)    
Moisture  
Dew Point 53 °F    
Average Humidity 78    
Maximum Humidity 100    
Minimum Humidity 48    
Precipitation  
Precipitation 0.00 in - - ()
Sea Level Pressure  
Sea Level Pressure 30.03 in    
Wind  
Wind Speed 3 mph ()    
Max Wind Speed 13 mph    
Max Gust Speed -    
Visibility 2.9 miles    
Events      
Averages and records for this station are not official NWS values.
T = Trace of Precipitation, MM = Missing Value Source: Averaged Metar Reports

Daily Weather History Graph

Daily Weather History Graph

Search for Another Location

Airport:

Trip Planner

Search our weather history database for the weather conditions in past years. The results will help you decide how hot, cold, wet, or windy it might be!

Date:

Astronomy

Mar. 02, 2013 Rise Set
Actual Time 6:56 AM IST 6:29 PM IST
Civil Twilight 6:32 AM IST 6:53 PM IST
Nautical Twilight 6:04 AM IST 7:22 PM IST
Astronomical Twilight 5:36 AM IST 7:50 PM IST
Moon 11:16 PM IST (3/2) 9:25 AM IST (3/2)
Length of Visible Light 12h 21m
Length of Day
11h 32m
Waning Gibbous, 78% of the Moon is Illuminated
Mar 2
Waning Gibbous
Mar 5
Last Quarter
Mar 12
New
Mar 19
First Quarter
Mar 27
Full

Hourly Weather History & Observations

Time (IST) Temp. Dew Point Humidity Pressure Visibility Wind Dir Wind Speed Gust Speed Precip Events Conditions
12:00 AM 53.6 °F 50.0 °F 88% 30.06 in 2.5 mi Calm Calm - N/A   Mist
12:30 AM 53.6 °F 50.0 °F 88% 30.06 in 2.5 mi Calm Calm - N/A   Mist
1:00 AM 51.8 °F 50.0 °F 94% 30.04 in 2.5 mi Calm Calm - N/A   Mist
1:30 AM 51.8 °F 50.0 °F 94% 30.04 in 2.5 mi Calm Calm - N/A   Mist
2:00 AM 51.8 °F 50.0 °F 94% 30.04 in 2.5 mi Calm Calm - N/A   Mist
2:30 AM 51 °F 51 °F 99% 30.04 in 1 mi Calm Calm - -   Mist
2:30 AM 50.0 °F 50.0 °F 100% 30.01 in 2.5 mi Variable 1.2 mph - N/A   Mist
3:00 AM 50.0 °F 50.0 °F 100% 30.01 in 2.5 mi Calm Calm - N/A   Mist
3:30 AM 48.2 °F 48.2 °F 100% 30.01 in 2.5 mi Calm Calm - N/A   Mist
4:00 AM 48.2 °F 48.2 °F 100% 30.01 in 2.5 mi Calm Calm - N/A   Mist
5:00 AM 48.2 °F 48.2 °F 100% 29.98 in 2.5 mi Calm Calm - N/A   Mist
5:30 AM 48.2 °F 46.4 °F 93% 30.01 in 2.5 mi Calm Calm - N/A   Mist
6:00 AM - - N/A% 30.01 in 2.5 mi Calm Calm - N/A   Mist
6:30 AM 46.4 °F 46.4 °F 100% 30.01 in 2.5 mi Calm Calm - N/A   Mist
7:00 AM 46.4 °F 46.4 °F 100% 30.01 in 2.5 mi Calm Calm - N/A   Mist
7:30 AM 46.4 °F 46.4 °F 100% 30.01 in 2.5 mi Calm Calm - N/A   Mist
8:00 AM 48.2 °F 46.4 °F 93% 30.04 in 2.5 mi Calm Calm - N/A   Mist
8:30 AM 52 °F 47 °F 78% 30.05 in 2 mi West 5.8 mph - -   Mist
8:30 AM 51.8 °F 48.2 °F 88% 30.04 in 2.5 mi West 5.8 mph - N/A   Mist
9:00 AM 55.4 °F 48.2 °F 77% 30.06 in 2.5 mi West 8.1 mph - N/A   Mist
10:00 AM 62.6 °F 51.8 °F 68% 30.06 in 3.7 mi WNW 10.4 mph - N/A   Unknown
11:00 AM 68.0 °F 53.6 °F 60% 30.06 in 3.7 mi WNW 10.4 mph - N/A   Unknown
11:30 AM 69 °F 54 °F 48% 30.05 in 2 mi NW 12.7 mph - -  
11:30 AM 69.8 °F 53.6 °F 56% 30.06 in 3.7 mi NW 12.7 mph - N/A   Unknown
12:00 PM 69.8 °F 53.6 °F 56% 30.06 in 3.7 mi WNW 11.5 mph - N/A   Unknown
12:30 PM 71.6 °F 53.6 °F 53% 30.06 in 3.7 mi WNW 11.5 mph - N/A   Unknown
1:00 PM 73.4 °F 53.6 °F 50% 30.04 in 3.7 mi WNW 11.5 mph - N/A   Unknown
1:30 PM 73.4 °F 53.6 °F 50% 30.04 in 3.7 mi WNW 10.4 mph - N/A   Unknown
2:00 PM 73.4 °F 53.6 °F 50% 30.04 in 3.7 mi WNW 10.4 mph - N/A   Unknown
2:30 PM 75.2 °F 55.4 °F 50% 30.01 in 3.7 mi West 9.2 mph - N/A   Unknown
3:00 PM 75.2 °F 55.4 °F 50% 30.01 in 3.7 mi West 10.4 mph - N/A   Unknown
3:30 PM 75.2 °F 55.4 °F 50% 30.01 in 3.7 mi West 10.4 mph - N/A   Unknown
4:00 PM 75.2 °F 55.4 °F 50% 30.01 in 3.7 mi West 10.4 mph - N/A   Unknown
4:30 PM 75.2 °F 57.2 °F 53% 30.01 in 3.7 mi West 9.2 mph - N/A   Unknown
5:00 PM 73.4 °F 59.0 °F 61% 30.01 in 3.7 mi WNW 8.1 mph - N/A   Unknown
5:30 PM 73 °F 61 °F 58% 29.98 in 2 mi WNW 5.8 mph - -  
5:30 PM 73.4 °F 60.8 °F 65% 30.01 in 3.7 mi West 5.8 mph - N/A   Unknown
6:00 PM 71.6 °F 60.8 °F 69% 30.01 in 3.7 mi Variable 2.3 mph - N/A   Unknown
6:30 PM 69.8 °F 59.0 °F 68% 30.01 in 3.7 mi Calm Calm - N/A   Unknown
7:00 PM 64.4 °F 59.0 °F 83% 30.01 in 3.7 mi Calm Calm - N/A   Unknown
8:00 PM 64.4 °F 59.0 °F 83% 30.01 in 3.1 mi Calm Calm - N/A   Mist
8:30 PM 60 °F 56 °F 83% 30.03 in 2 mi Calm Calm - -   Mist
8:30 PM 60.8 °F 57.2 °F 88% 30.04 in 2.8 mi Calm Calm - N/A   Mist
9:00 PM 59.0 °F 55.4 °F 88% 30.04 in 2.8 mi Calm Calm - N/A   Mist
9:30 PM 59.0 °F 55.4 °F 88% 30.04 in 2.8 mi Calm Calm - N/A   Mist
10:00 PM 59.0 °F 55.4 °F 88% 30.04 in 2.8 mi Calm Calm - N/A   Mist
10:30 PM 57.2 °F 55.4 °F 94% 30.04 in 2.8 mi Calm Calm - N/A   Mist
11:00 PM 57.2 °F 55.4 °F 94% 30.06 in 2.5 mi Calm Calm - N/A   Mist
11:30 PM 56 °F 53 °F 86% 30.06 in 2 mi Calm Calm - -   Mist
11:30 PM 57.2 °F 53.6 °F 88% 30.06 in 2.5 mi Calm Calm - N/A   Mist